Airport Information

KCEC - Del Norte County Airport

KCEC 251056Z AUTO 18024G31KT 10SM -RA OVC070 13/06 A2989 RMK AO2 PK WND 19031/1054 RAE13B55 SLP121 P0001 T01280056


  • General Information

  • Coordinates: N 41°46'48"/ W 124°14'13"
  • Location: N/A
  • Surveyed Elevation: 57 MSL

Operations

Flow Name Active Runways Conditions

Green background denotes normal operations.


Common Frequencies

Callsign Frequency Position Name

More at the Document Center


Charts